Wetterdaten: Samstag, 14.11.2015
Datum Zeit Temperatur Luftfeuchte Luftdruck Regen Wind Richtung Richtung Sonnenschein ET UV Solar Taupunkt Windchill Windben
14.11.2015 00:00 7,1 C 80 % 1024,3 hPa 0,0 l/m 3,1 km/h (1 Bft) W-SW 246 0 min 0,000 mm 0,0 UV-I 0 W/m 3,9 C 7,1 C 9,7 km/h (2 Bft)
14.11.2015 00:05 7,1 C 79 % 1024,4 hPa 0,0 l/m 9,6 km/h (2 Bft) W 279 0 min 0,000 mm 0,0 UV-I 0 W/m 3,7 C 4,7 C 20,9 km/h (4 Bft)
14.11.2015 00:10 7,1 C 79 % 1024,4 hPa 0,0 l/m 7,1 km/h (2 Bft) NW 308 0 min 0,000 mm 0,0 UV-I 0 W/m 3,7 C 6,5 C 17,7 km/h (3 Bft)
14.11.2015 00:15 7,2 C 79 % 1024,6 hPa 0,0 l/m 9,9 km/h (2 Bft) W 261 0 min 0,000 mm 0,0 UV-I 0 W/m 3,8 C 4,6 C 25,7 km/h (4 Bft)
14.11.2015 00:20 7,2 C 78 % 1024,7 hPa 0,0 l/m 11,9 km/h (2 Bft) W 277 0 min 0,000 mm 0,0 UV-I 0 W/m 3,6 C 3,3 C 25,7 km/h (4 Bft)
14.11.2015 00:25 7,2 C 78 % 1024,7 hPa 0,0 l/m 11,3 km/h (2 Bft) W-SW 247 0 min 0,000 mm 0,0 UV-I 0 W/m 3,6 C 3,7 C 27,4 km/h (4 Bft)
14.11.2015 00:30 7,3 C 78 % 1024,8 hPa 0,0 l/m 11,6 km/h (2 Bft) W-NW 297 0 min 0,000 mm 0,0 UV-I 0 W/m 3,7 C 3,6 C 27,4 km/h (4 Bft)
14.11.2015 00:35 7,3 C 78 % 1024,8 hPa 0,0 l/m 7,8 km/h (2 Bft) W 265 0 min 0,000 mm 0,0 UV-I 0 W/m 3,7 C 6,2 C 17,7 km/h (3 Bft)
14.11.2015 00:40 7,3 C 77 % 1024,9 hPa 0,0 l/m 10,0 km/h (2 Bft) W-NW 302 0 min 0,000 mm 0,0 UV-I 0 W/m 3,5 C 4,6 C 20,9 km/h (4 Bft)
14.11.2015 00:45 7,3 C 77 % 1025,0 hPa 0,0 l/m 9,6 km/h (2 Bft) W-SW 250 0 min 0,000 mm 0,0 UV-I 0 W/m 3,5 C 4,9 C 22,5 km/h (4 Bft)
14.11.2015 00:50 7,3 C 77 % 1025,1 hPa 0,0 l/m 8,7 km/h (2 Bft) W-NW 290 0 min 0,000 mm 0,0 UV-I 0 W/m 3,5 C 5,5 C 20,9 km/h (4 Bft)
14.11.2015 00:55 7,3 C 77 % 1025,2 hPa 0,0 l/m 9,9 km/h (2 Bft) W 268 0 min 0,000 mm 0,0 UV-I 0 W/m 3,5 C 4,7 C 25,7 km/h (4 Bft)
14.11.2015 01:00 7,3 C 76 % 1025,2 hPa 0,0 l/m 9,0 km/h (2 Bft) W 268 0 min 0,000 mm 0,0 UV-I 0 W/m 3,4 C 5,3 C 27,4 km/h (4 Bft)
14.11.2015 01:05 7,3 C 76 % 1025,2 hPa 0,0 l/m 12,3 km/h (3 Bft) W-SW 250 0 min 0,025 mm 0,0 UV-I 0 W/m 3,4 C 3,2 C 27,4 km/h (4 Bft)
14.11.2015 01:10 7,4 C 75 % 1025,3 hPa 0,0 l/m 14,1 km/h (3 Bft) W 271 0 min 0,000 mm 0,0 UV-I 0 W/m 3,3 C 2,4 C 30,6 km/h (5 Bft)
14.11.2015 01:15 7,4 C 75 % 1025,3 hPa 0,0 l/m 10,2 km/h (2 Bft) W-NW 284 0 min 0,000 mm 0,0 UV-I 0 W/m 3,3 C 4,6 C 22,5 km/h (4 Bft)
14.11.2015 01:20 7,3 C 75 % 1025,5 hPa 0,0 l/m 11,1 km/h (2 Bft) W 271 0 min 0,000 mm 0,0 UV-I 0 W/m 3,2 C 3,9 C 27,4 km/h (4 Bft)
14.11.2015 01:25 7,3 C 75 % 1025,7 hPa 0,0 l/m 11,5 km/h (2 Bft) W-NW 293 0 min 0,000 mm 0,0 UV-I 0 W/m 3,2 C 3,7 C 27,4 km/h (4 Bft)
14.11.2015 01:30 7,3 C 75 % 1025,7 hPa 0,0 l/m 10,6 km/h (2 Bft) W 279 0 min 0,000 mm 0,0 UV-I 0 W/m 3,2 C 4,2 C 24,1 km/h (4 Bft)
14.11.2015 01:35 7,3 C 74 % 1025,7 hPa 0,0 l/m 11,4 km/h (2 Bft) W 273 0 min 0,000 mm 0,0 UV-I 0 W/m 3,0 C 3,8 C 25,7 km/h (4 Bft)
14.11.2015 01:40 7,3 C 74 % 1025,7 hPa 0,0 l/m 11,0 km/h (2 Bft) W-NW 285 0 min 0,000 mm 0,0 UV-I 0 W/m 3,0 C 4,0 C 29,0 km/h (5 Bft)
14.11.2015 01:45 7,3 C 74 % 1025,8 hPa 0,0 l/m 7,9 km/h (2 Bft) W 278 0 min 0,000 mm 0,0 UV-I 0 W/m 3,0 C 6,1 C 17,7 km/h (3 Bft)
14.11.2015 01:50 7,2 C 74 % 1025,8 hPa 0,0 l/m 9,0 km/h (2 Bft) W 279 0 min 0,000 mm 0,0 UV-I 0 W/m 2,9 C 5,2 C 25,7 km/h (4 Bft)
14.11.2015 01:55 7,1 C 74 % 1025,8 hPa 0,0 l/m 9,4 km/h (2 Bft) W 261 0 min 0,000 mm 0,0 UV-I 0 W/m 2,8 C 4,8 C 22,5 km/h (4 Bft)
14.11.2015 02:00 7,1 C 74 % 1026,0 hPa 0,0 l/m 10,6 km/h (2 Bft) W 259 0 min 0,000 mm 0,0 UV-I 0 W/m 2,8 C 4,0 C 24,1 km/h (4 Bft)
14.11.2015 02:05 7,0 C 74 % 1026,1 hPa 0,0 l/m 8,9 km/h (2 Bft) NW 304 0 min 0,026 mm 0,0 UV-I 0 W/m 2,7 C 5,0 C 27,4 km/h (4 Bft)
14.11.2015 02:10 6,9 C 74 % 1026,2 hPa 0,0 l/m 7,8 km/h (2 Bft) W 279 0 min 0,000 mm 0,0 UV-I 0 W/m 2,6 C 5,8 C 19,3 km/h (3 Bft)
14.11.2015 02:15 6,9 C 74 % 1026,2 hPa 0,0 l/m 7,3 km/h (2 Bft) W-SW 244 0 min 0,000 mm 0,0 UV-I 0 W/m 2,6 C 6,2 C 19,3 km/h (3 Bft)
14.11.2015 02:20 6,9 C 74 % 1026,2 hPa 0,0 l/m 7,9 km/h (2 Bft) NW 320 0 min 0,000 mm 0,0 UV-I 0 W/m 2,6 C 5,7 C 19,3 km/h (3 Bft)
14.11.2015 02:25 6,8 C 74 % 1026,3 hPa 0,0 l/m 7,2 km/h (2 Bft) W-NW 293 0 min 0,000 mm 0,0 UV-I 0 W/m 2,5 C 6,1 C 22,5 km/h (4 Bft)
14.11.2015 02:30 6,7 C 74 % 1026,3 hPa 0,0 l/m 5,2 km/h (1 Bft) SW 218 0 min 0,000 mm 0,0 UV-I 0 W/m 2,4 C 6,7 C 14,5 km/h (3 Bft)
14.11.2015 02:35 6,6 C 74 % 1026,4 hPa 0,0 l/m 5,3 km/h (1 Bft) W-SW 247 0 min 0,000 mm 0,0 UV-I 0 W/m 2,3 C 6,6 C 16,1 km/h (3 Bft)
14.11.2015 02:40 6,6 C 74 % 1026,4 hPa 0,0 l/m 8,0 km/h (2 Bft) W 271 0 min 0,000 mm 0,0 UV-I 0 W/m 2,3 C 5,3 C 17,7 km/h (3 Bft)
14.11.2015 02:45 6,4 C 75 % 1026,4 hPa 0,0 l/m 3,1 km/h (1 Bft) W 280 0 min 0,000 mm 0,0 UV-I 0 W/m 2,3 C 6,4 C 9,7 km/h (2 Bft)
14.11.2015 02:50 6,3 C 75 % 1026,4 hPa 0,0 l/m 4,4 km/h (1 Bft) W-NW 293 0 min 0,000 mm 0,0 UV-I 0 W/m 2,2 C 6,3 C 12,9 km/h (3 Bft)
14.11.2015 02:55 6,3 C 75 % 1026,4 hPa 0,0 l/m 3,1 km/h (1 Bft) W-NW 284 0 min 0,000 mm 0,0 UV-I 0 W/m 2,2 C 6,3 C 11,3 km/h (2 Bft)
14.11.2015 03:00 6,2 C 76 % 1026,4 hPa 0,0 l/m 1,4 km/h (1 Bft) W-NW 286 0 min 0,000 mm 0,0 UV-I 0 W/m 2,3 C 6,2 C 9,7 km/h (2 Bft)
14.11.2015 03:05 6,1 C 76 % 1026,4 hPa 0,0 l/m 1,9 km/h (1 Bft) NW 317 0 min 0,025 mm 0,0 UV-I 0 W/m 2,2 C 6,1 C 9,7 km/h (2 Bft)
14.11.2015 03:10 6,1 C 76 % 1026,5 hPa 0,0 l/m 3,2 km/h (1 Bft) W-SW 255 0 min 0,000 mm 0,0 UV-I 0 W/m 2,2 C 6,1 C 12,9 km/h (3 Bft)
14.11.2015 03:15 6,0 C 76 % 1026,5 hPa 0,0 l/m 2,4 km/h (1 Bft) W 281 0 min 0,000 mm 0,0 UV-I 0 W/m 2,1 C 6,0 C 8,0 km/h (2 Bft)
14.11.2015 03:20 5,9 C 76 % 1026,4 hPa 0,0 l/m 2,3 km/h (1 Bft) W 267 0 min 0,000 mm 0,0 UV-I 0 W/m 2,0 C 5,9 C 8,0 km/h (2 Bft)
14.11.2015 03:25 5,8 C 76 % 1026,5 hPa 0,0 l/m 3,4 km/h (1 Bft) W 268 0 min 0,000 mm 0,0 UV-I 0 W/m 1,9 C 5,8 C 9,7 km/h (2 Bft)
14.11.2015 03:30 5,8 C 77 % 1026,4 hPa 0,0 l/m 2,4 km/h (1 Bft) W 279 0 min 0,000 mm 0,0 UV-I 0 W/m 2,1 C 5,8 C 8,0 km/h (2 Bft)
14.11.2015 03:35 5,7 C 77 % 1026,3 hPa 0,0 l/m 1,0 km/h (0 Bft) W-SW 250 0 min 0,000 mm 0,0 UV-I 0 W/m 2,0 C 5,7 C 4,8 km/h (1 Bft)
14.11.2015 03:40 5,7 C 77 % 1026,3 hPa 0,0 l/m 2,2 km/h (1 Bft) W-NW 297 0 min 0,000 mm 0,0 UV-I 0 W/m 2,0 C 5,7 C 8,0 km/h (2 Bft)
14.11.2015 03:45 5,6 C 77 % 1026,3 hPa 0,0 l/m 1,1 km/h (1 Bft) W-NW 284 0 min 0,000 mm 0,0 UV-I 0 W/m 1,9 C 5,6 C 4,8 km/h (1 Bft)
14.11.2015 03:50 5,5 C 77 % 1026,3 hPa 0,0 l/m 1,5 km/h (1 Bft) W-NW 296 0 min 0,000 mm 0,0 UV-I 0 W/m 1,8 C 5,5 C 8,0 km/h (2 Bft)
14.11.2015 03:55 5,5 C 78 % 1026,3 hPa 0,0 l/m 1,7 km/h (1 Bft) W 269 0 min 0,000 mm 0,0 UV-I 0 W/m 2,0 C 5,5 C 6,4 km/h (2 Bft)
14.11.2015 04:00 5,5 C 77 % 1026,2 hPa 0,0 l/m 2,6 km/h (1 Bft) W 274 0 min 0,000 mm 0,0 UV-I 0 W/m 1,8 C 5,5 C 8,0 km/h (2 Bft)
14.11.2015 04:05 5,4 C 78 % 1026,1 hPa 0,0 l/m 1,6 km/h (1 Bft) W 279 0 min 0,026 mm 0,0 UV-I 0 W/m 1,9 C 5,4 C 12,9 km/h (3 Bft)
14.11.2015 04:10 5,4 C 78 % 1026,2 hPa 0,0 l/m 2,0 km/h (1 Bft) W 275 0 min 0,000 mm 0,0 UV-I 0 W/m 1,9 C 5,4 C 9,7 km/h (2 Bft)
14.11.2015 04:15 5,4 C 78 % 1026,1 hPa 0,0 l/m 1,8 km/h (1 Bft) W-NW 302 0 min 0,000 mm 0,0 UV-I 0 W/m 1,9 C 5,4 C 9,7 km/h (2 Bft)
14.11.2015 04:20 5,4 C 78 % 1026,1 hPa 0,0 l/m 2,2 km/h (1 Bft) W 271 0 min 0,000 mm 0,0 UV-I 0 W/m 1,9 C 5,4 C 8,0 km/h (2 Bft)
14.11.2015 04:25 5,4 C 78 % 1025,9 hPa 0,0 l/m 2,2 km/h (1 Bft) W-NW 298 0 min 0,000 mm 0,0 UV-I 0 W/m 1,9 C 5,4 C 8,0 km/h (2 Bft)
14.11.2015 04:30 5,3 C 79 % 1026,0 hPa 0,0 l/m 2,7 km/h (1 Bft) W-NW 302 0 min 0,000 mm 0,0 UV-I 0 W/m 2,0 C 5,3 C 11,3 km/h (2 Bft)
14.11.2015 04:35 5,3 C 78 % 1026,1 hPa 0,0 l/m 1,6 km/h (1 Bft) W 260 0 min 0,000 mm 0,0 UV-I 0 W/m 1,8 C 5,3 C 6,4 km/h (2 Bft)
14.11.2015 04:40 5,3 C 79 % 1026,1 hPa 0,0 l/m 2,5 km/h (1 Bft) W-NW 287 0 min 0,000 mm 0,0 UV-I 0 W/m 2,0 C 5,3 C 12,9 km/h (3 Bft)
14.11.2015 04:45 5,4 C 79 % 1026,1 hPa 0,0 l/m 2,9 km/h (1 Bft) W-SW 243 0 min 0,000 mm 0,0 UV-I 0 W/m 2,1 C 5,4 C 9,7 km/h (2 Bft)
14.11.2015 04:50 5,4 C 79 % 1026,1 hPa 0,0 l/m 1,3 km/h (1 Bft) W-NW 302 0 min 0,000 mm 0,0 UV-I 0 W/m 2,1 C 5,4 C 6,4 km/h (2 Bft)
14.11.2015 04:55 5,3 C 79 % 1026,2 hPa 0,0 l/m 1,2 km/h (1 Bft) W 263 0 min 0,000 mm 0,0 UV-I 0 W/m 2,0 C 5,3 C 8,0 km/h (2 Bft)
14.11.2015 05:00 5,3 C 79 % 1026,1 hPa 0,0 l/m 0,4 km/h (0 Bft) W-SW 239 0 min 0,025 mm 0,0 UV-I 0 W/m 2,0 C 5,3 C 3,2 km/h (1 Bft)
14.11.2015 05:05 5,3 C 80 % 1026,0 hPa 0,0 l/m 2,6 km/h (1 Bft) W-NW 282 0 min 0,000 mm 0,0 UV-I 0 W/m 2,1 C 5,3 C 6,4 km/h (2 Bft)
14.11.2015 05:10 5,2 C 80 % 1026,1 hPa 0,0 l/m 1,9 km/h (1 Bft) W-SW 253 0 min 0,000 mm 0,0 UV-I 0 W/m 2,0 C 5,2 C 9,7 km/h (2 Bft)
14.11.2015 05:15 5,3 C 80 % 1026,1 hPa 0,0 l/m 1,4 km/h (1 Bft) W-NW 290 0 min 0,000 mm 0,0 UV-I 0 W/m 2,1 C 5,3 C 6,4 km/h (2 Bft)
14.11.2015 05:20 5,3 C 80 % 1026,2 hPa 0,0 l/m 0,4 km/h (0 Bft) W 271 0 min 0,000 mm 0,0 UV-I 0 W/m 2,1 C 5,3 C 6,4 km/h (2 Bft)
14.11.2015 05:25 5,2 C 80 % 1026,2 hPa 0,0 l/m 0,0 km/h (0 Bft) W-NW 289 0 min 0,000 mm 0,0 UV-I 0 W/m 2,0 C 5,2 C 1,6 km/h (1 Bft)
14.11.2015 05:30 5,1 C 80 % 1026,1 hPa 0,0 l/m 0,0 km/h (0 Bft) W-NW 289 0 min 0,000 mm 0,0 UV-I 0 W/m 1,9 C 5,1 C 0,0 km/h (0 Bft)
14.11.2015 05:35 5,0 C 81 % 1026,2 hPa 0,0 l/m 0,0 km/h (0 Bft) W-NW 289 0 min 0,000 mm 0,0 UV-I 0 W/m 2,0 C 5,0 C 1,6 km/h (1 Bft)
14.11.2015 05:40 4,9 C 81 % 1026,1 hPa 0,0 l/m 0,5 km/h (0 Bft) W-NW 284 0 min 0,000 mm 0,0 UV-I 0 W/m 1,9 C 4,9 C 8,0 km/h (2 Bft)
14.11.2015 05:45 4,9 C 82 % 1026,1 hPa 0,0 l/m 0,0 km/h (0 Bft) W-NW 284 0 min 0,000 mm 0,0 UV-I 0 W/m 2,1 C 4,9 C 1,6 km/h (1 Bft)
14.11.2015 05:50 4,9 C 82 % 1026,1 hPa 0,0 l/m 0,3 km/h (0 Bft) W-NW 290 0 min 0,000 mm 0,0 UV-I 0 W/m 2,1 C 4,9 C 4,8 km/h (1 Bft)
14.11.2015 05:55 4,9 C 83 % 1026,1 hPa 0,0 l/m 1,4 km/h (1 Bft) W 268 0 min 0,000 mm 0,0 UV-I 0 W/m 2,3 C 4,9 C 6,4 km/h (2 Bft)
14.11.2015 06:00 5,0 C 83 % 1026,0 hPa 0,0 l/m 0,5 km/h (0 Bft) W 275 0 min 0,000 mm 0,0 UV-I 0 W/m 2,4 C 5,0 C 6,4 km/h (2 Bft)
14.11.2015 06:05 5,1 C 83 % 1026,0 hPa 0,0 l/m 0,0 km/h (0 Bft) W 275 0 min 0,000 mm 0,0 UV-I 0 W/m 2,5 C 5,1 C 1,6 km/h (1 Bft)
14.11.2015 06:10 5,1 C 83 % 1025,9 hPa 0,0 l/m 0,9 km/h (0 Bft) W-NW 285 0 min 0,000 mm 0,0 UV-I 0 W/m 2,5 C 5,1 C 6,4 km/h (2 Bft)
14.11.2015 06:15 5,1 C 84 % 1025,9 hPa 0,0 l/m 0,3 km/h (0 Bft) W 272 0 min 0,000 mm 0,0 UV-I 0 W/m 2,6 C 5,1 C 4,8 km/h (1 Bft)
14.11.2015 06:20 5,1 C 84 % 1025,9 hPa 0,0 l/m 0,5 km/h (0 Bft) W 270 0 min 0,000 mm 0,0 UV-I 0 W/m 2,6 C 5,1 C 3,2 km/h (1 Bft)
14.11.2015 06:25 5,1 C 85 % 1026,0 hPa 0,0 l/m 1,5 km/h (1 Bft) W-SW 246 0 min 0,000 mm 0,0 UV-I 0 W/m 2,8 C 5,1 C 11,3 km/h (2 Bft)
14.11.2015 06:30 5,1 C 85 % 1025,8 hPa 0,0 l/m 0,4 km/h (0 Bft) W-NW 289 0 min 0,000 mm 0,0 UV-I 0 W/m 2,8 C 5,1 C 3,2 km/h (1 Bft)
14.11.2015 06:35 5,1 C 85 % 1025,8 hPa 0,0 l/m 0,4 km/h (0 Bft) W-NW 295 0 min 0,000 mm 0,0 UV-I 0 W/m 2,8 C 5,1 C 3,2 km/h (1 Bft)
14.11.2015 06:40 5,2 C 85 % 1025,8 hPa 0,0 l/m 0,8 km/h (0 Bft) W 264 0 min 0,000 mm 0,0 UV-I 0 W/m 2,9 C 5,2 C 4,8 km/h (1 Bft)
14.11.2015 06:45 5,3 C 85 % 1025,8 hPa 0,0 l/m 0,8 km/h (0 Bft) W-NW 302 0 min 0,000 mm 0,0 UV-I 0 W/m 3,0 C 5,3 C 6,4 km/h (2 Bft)
14.11.2015 06:50 5,3 C 85 % 1025,7 hPa 0,0 l/m 1,9 km/h (1 Bft) W-NW 296 0 min 0,000 mm 0,0 UV-I 0 W/m 3,0 C 5,3 C 8,0 km/h (2 Bft)
14.11.2015 06:55 5,3 C 85 % 1025,7 hPa 0,0 l/m 0,8 km/h (0 Bft) W 277 0 min 0,000 mm 0,0 UV-I 0 W/m 3,0 C 5,3 C 6,4 km/h (2 Bft)
14.11.2015 07:00 5,3 C 86 % 1025,7 hPa 0,0 l/m 1,0 km/h (0 Bft) W-NW 286 0 min 0,000 mm 0,0 UV-I 0 W/m 3,2 C 5,3 C 6,4 km/h (2 Bft)
14.11.2015 07:05 5,5 C 86 % 1025,7 hPa 0,0 l/m 2,3 km/h (1 Bft) S-SW 196 0 min 0,000 mm 0,0 UV-I 0 W/m 3,3 C 5,5 C 14,5 km/h (3 Bft)
14.11.2015 07:10 5,6 C 86 % 1025,5 hPa 0,0 l/m 2,6 km/h (1 Bft) W-SW 252 0 min 0,000 mm 0,0 UV-I 0 W/m 3,4 C 5,6 C 12,9 km/h (3 Bft)
14.11.2015 07:15 5,7 C 86 % 1025,6 hPa 0,0 l/m 1,4 km/h (1 Bft) W-SW 256 0 min 0,000 mm 0,0 UV-I 0 W/m 3,5 C 5,7 C 9,7 km/h (2 Bft)
14.11.2015 07:20 5,8 C 86 % 1025,6 hPa 0,0 l/m 1,4 km/h (1 Bft) W 267 0 min 0,000 mm 0,0 UV-I 0 W/m 3,6 C 5,8 C 9,7 km/h (2 Bft)
14.11.2015 07:25 5,9 C 85 % 1025,7 hPa 0,0 l/m 2,7 km/h (1 Bft) W 268 0 min 0,000 mm 0,0 UV-I 0 W/m 3,6 C 5,9 C 9,7 km/h (2 Bft)
14.11.2015 07:30 6,0 C 85 % 1025,7 hPa 0,0 l/m 3,5 km/h (1 Bft) SW 227 0 min 0,000 mm 0,0 UV-I 0 W/m 3,7 C 6,0 C 12,9 km/h (3 Bft)
14.11.2015 07:35 6,1 C 85 % 1025,6 hPa 0,0 l/m 4,9 km/h (1 Bft) SW 227 0 min 0,000 mm 0,0 UV-I 0 W/m 3,8 C 6,1 C 14,5 km/h (3 Bft)
14.11.2015 07:40 6,2 C 85 % 1025,7 hPa 0,0 l/m 2,1 km/h (1 Bft) W 259 0 min 0,000 mm 0,0 UV-I 0 W/m 3,9 C 6,2 C 9,7 km/h (2 Bft)
14.11.2015 07:45 6,2 C 85 % 1025,8 hPa 0,0 l/m 1,1 km/h (1 Bft) W 263 0 min 0,000 mm 0,0 UV-I 0 W/m 3,9 C 6,2 C 6,4 km/h (2 Bft)
14.11.2015 07:50 6,3 C 84 % 1025,7 hPa 0,0 l/m 5,4 km/h (1 Bft) W-SW 250 0 min 0,000 mm 0,0 UV-I 1 W/m 3,8 C 6,3 C 19,3 km/h (3 Bft)
14.11.2015 07:55 6,4 C 84 % 1025,7 hPa 0,0 l/m 3,0 km/h (1 Bft) W 270 0 min 0,000 mm 0,0 UV-I 4 W/m 3,9 C 6,4 C 14,5 km/h (3 Bft)
14.11.2015 08:00 6,6 C 83 % 1025,8 hPa 0,0 l/m 4,3 km/h (1 Bft) W 263 0 min 0,000 mm 0,0 UV-I 7 W/m 3,9 C 6,6 C 12,9 km/h (3 Bft)
14.11.2015 08:05 6,7 C 83 % 1025,9 hPa 0,0 l/m 4,7 km/h (1 Bft) W-SW 254 0 min 0,000 mm 0,0 UV-I 8 W/m 4,0 C 6,7 C 12,9 km/h (3 Bft)
14.11.2015 08:10 6,8 C 82 % 1025,9 hPa 0,0 l/m 6,0 km/h (2 Bft) W 279 0 min 0,000 mm 0,0 UV-I 12 W/m 3,9 C 6,8 C 14,5 km/h (3 Bft)
14.11.2015 08:15 6,9 C 81 % 1025,8 hPa 0,0 l/m 3,3 km/h (1 Bft) W-SW 246 0 min 0,000 mm 0,0 UV-I 14 W/m 3,9 C 6,9 C 12,9 km/h (3 Bft)
14.11.2015 08:20 7,0 C 81 % 1025,8 hPa 0,0 l/m 4,0 km/h (1 Bft) W 277 0 min 0,000 mm 0,0 UV-I 21 W/m 4,0 C 7,0 C 16,1 km/h (3 Bft)
14.11.2015 08:25 7,1 C 81 % 1025,8 hPa 0,0 l/m 3,8 km/h (1 Bft) SW 226 0 min 0,000 mm 0,0 UV-I 30 W/m 4,1 C 7,1 C 11,3 km/h (2 Bft)
14.11.2015 08:30 7,2 C 80 % 1025,9 hPa 0,0 l/m 7,9 km/h (2 Bft) W-SW 239 0 min 0,000 mm 0,0 UV-I 35 W/m 4,0 C 6,0 C 20,9 km/h (4 Bft)
14.11.2015 08:35 7,3 C 79 % 1026,0 hPa 0,0 l/m 13,0 km/h (3 Bft) W 273 0 min 0,000 mm 0,0 UV-I 39 W/m 3,9 C 2,9 C 24,1 km/h (4 Bft)
14.11.2015 08:40 7,4 C 78 % 1026,1 hPa 0,0 l/m 10,6 km/h (2 Bft) W-SW 250 0 min 0,000 mm 0,0 UV-I 40 W/m 3,8 C 4,3 C 20,9 km/h (4 Bft)
14.11.2015 08:45 7,5 C 77 % 1026,0 hPa 0,0 l/m 11,5 km/h (2 Bft) W-SW 245 0 min 0,000 mm 0,0 UV-I 47 W/m 3,7 C 3,9 C 24,1 km/h (4 Bft)
14.11.2015 08:50 7,6 C 77 % 1026,0 hPa 0,0 l/m 12,6 km/h (3 Bft) W 278 0 min 0,000 mm 0,0 UV-I 48 W/m 3,8 C 3,4 C 27,4 km/h (4 Bft)
14.11.2015 08:55 7,6 C 77 % 1026,2 hPa 0,0 l/m 11,1 km/h (2 Bft) W-NW 282 0 min 0,000 mm 0,0 UV-I 40 W/m 3,8 C 4,3 C 30,6 km/h (5 Bft)
14.11.2015 09:00 7,6 C 76 % 1026,1 hPa 0,0 l/m 10,0 km/h (2 Bft) W 261 0 min 0,025 mm 0,0 UV-I 43 W/m 3,6 C 4,9 C 27,4 km/h (4 Bft)
14.11.2015 09:05 7,7 C 76 % 1026,2 hPa 0,0 l/m 10,0 km/h (2 Bft) W 265 0 min 0,000 mm 0,0 UV-I 41 W/m 3,7 C 5,1 C 20,9 km/h (4 Bft)
14.11.2015 09:10 7,7 C 76 % 1026,2 hPa 0,0 l/m 8,7 km/h (2 Bft) S-SW 202 0 min 0,000 mm 0,0 UV-I 45 W/m 3,7 C 5,9 C 19,3 km/h (3 Bft)
14.11.2015 09:15 7,8 C 76 % 1026,3 hPa 0,0 l/m 9,9 km/h (2 Bft) W 274 0 min 0,000 mm 0,0 UV-I 49 W/m 3,8 C 5,2 C 17,7 km/h (3 Bft)
14.11.2015 09:20 7,8 C 75 % 1026,3 hPa 0,0 l/m 9,7 km/h (2 Bft) SW 223 0 min 0,000 mm 0,0 UV-I 77 W/m 3,7 C 5,4 C 20,9 km/h (4 Bft)
14.11.2015 09:25 7,9 C 75 % 1026,3 hPa 0,0 l/m 11,1 km/h (2 Bft) W 275 0 min 0,000 mm 0,0 UV-I 97 W/m 3,7 C 4,6 C 20,9 km/h (4 Bft)
14.11.2015 09:30 7,9 C 75 % 1026,3 hPa 0,0 l/m 10,2 km/h (2 Bft) W 276 0 min 0,000 mm 0,0 UV-I 93 W/m 3,7 C 5,1 C 20,9 km/h (4 Bft)
14.11.2015 09:35 7,9 C 75 % 1026,3 hPa 0,0 l/m 11,2 km/h (2 Bft) S-SW 204 0 min 0,000 mm 0,0 UV-I 85 W/m 3,7 C 4,5 C 20,9 km/h (4 Bft)
14.11.2015 09:40 7,9 C 74 % 1026,3 hPa 0,0 l/m 13,6 km/h (3 Bft) W-SW 248 0 min 0,000 mm 0,0 UV-I 95 W/m 3,6 C 3,3 C 24,1 km/h (4 Bft)
14.11.2015 09:45 8,0 C 75 % 1026,3 hPa 0,0 l/m 13,4 km/h (3 Bft) W 268 0 min 0,000 mm 0,0 UV-I 116 W/m 3,8 C 3,5 C 25,7 km/h (4 Bft)
14.11.2015 09:50 8,1 C 74 % 1026,4 hPa 0,0 l/m 12,4 km/h (3 Bft) W-SW 241 0 min 0,000 mm 0,0 UV-I 96 W/m 3,8 C 4,1 C 25,7 km/h (4 Bft)
14.11.2015 09:55 8,1 C 74 % 1026,4 hPa 0,0 l/m 12,4 km/h (3 Bft) W 265 0 min 0,000 mm 0,2 UV-I 115 W/m 3,8 C 4,1 C 22,5 km/h (4 Bft)
14.11.2015 10:00 8,2 C 74 % 1026,4 hPa 0,0 l/m 12,1 km/h (2 Bft) W-SW 244 5 min 0,077 mm 0,5 UV-I 161 W/m 3,8 C 4,4 C 24,1 km/h (4 Bft)
14.11.2015 10:05 8,2 C 73 % 1026,3 hPa 0,0 l/m 13,4 km/h (3 Bft) W-SW 247 5 min 0,000 mm 0,5 UV-I 170 W/m 3,7 C 3,7 C 27,4 km/h (4 Bft)
14.11.2015 10:10 8,4 C 73 % 1026,4 hPa 0,0 l/m 11,2 km/h (2 Bft) W-NW 300 5 min 0,000 mm 0,5 UV-I 224 W/m 3,8 C 5,1 C 22,5 km/h (4 Bft)
14.11.2015 10:15 8,4 C 72 % 1026,4 hPa 0,0 l/m 9,7 km/h (2 Bft) W-SW 248 0 min 0,000 mm 0,6 UV-I 151 W/m 3,7 C 6,0 C 25,7 km/h (4 Bft)
14.11.2015 10:20 8,4 C 71 % 1026,5 hPa 0,0 l/m 12,7 km/h (3 Bft) W-SW 256 0 min 0,000 mm 0,5 UV-I 147 W/m 3,5 C 4,3 C 37,0 km/h (5 Bft)
14.11.2015 10:25 8,4 C 72 % 1026,7 hPa 0,0 l/m 11,3 km/h (2 Bft) W-SW 254 0 min 0,000 mm 0,5 UV-I 128 W/m 3,7 C 5,1 C 25,7 km/h (4 Bft)
14.11.2015 10:30 8,5 C 70 % 1026,6 hPa 0,0 l/m 14,3 km/h (3 Bft) SW 231 0 min 0,000 mm 0,6 UV-I 136 W/m 3,3 C 3,6 C 30,6 km/h (5 Bft)
14.11.2015 10:35 8,5 C 71 % 1026,6 hPa 0,0 l/m 11,5 km/h (2 Bft) W 267 0 min 0,000 mm 0,5 UV-I 148 W/m 3,5 C 5,1 C 25,7 km/h (4 Bft)
14.11.2015 10:40 8,6 C 70 % 1026,6 hPa 0,0 l/m 12,6 km/h (3 Bft) W-SW 252 0 min 0,000 mm 0,5 UV-I 135 W/m 3,4 C 4,6 C 29,0 km/h (5 Bft)
14.11.2015 10:45 8,6 C 69 % 1026,6 hPa 0,0 l/m 12,8 km/h (3 Bft) W-NW 288 0 min 0,000 mm 0,6 UV-I 150 W/m 3,2 C 4,5 C 29,0 km/h (5 Bft)
14.11.2015 10:50 8,7 C 69 % 1026,5 hPa 0,0 l/m 11,3 km/h (2 Bft) W-NW 286 0 min 0,000 mm 0,6 UV-I 170 W/m 3,3 C 5,4 C 24,1 km/h (4 Bft)
14.11.2015 10:55 8,7 C 68 % 1026,5 hPa 0,0 l/m 12,0 km/h (2 Bft) W-SW 242 0 min 0,000 mm 0,6 UV-I 182 W/m 3,1 C 5,0 C 24,1 km/h (4 Bft)
14.11.2015 11:00 8,8 C 68 % 1026,5 hPa 0,0 l/m 12,5 km/h (3 Bft) W 271 5 min 0,000 mm 0,7 UV-I 195 W/m 3,2 C 4,9 C 24,1 km/h (4 Bft)
14.11.2015 11:05 8,8 C 68 % 1026,5 hPa 0,0 l/m 12,9 km/h (3 Bft) W 270 0 min 0,000 mm 0,7 UV-I 179 W/m 3,2 C 4,7 C 30,6 km/h (5 Bft)
14.11.2015 11:10 8,8 C 68 % 1026,5 hPa 0,0 l/m 10,8 km/h (2 Bft) W 275 5 min 0,101 mm 0,8 UV-I 194 W/m 3,2 C 5,8 C 16,1 km/h (3 Bft)
14.11.2015 11:15 8,9 C 67 % 1026,5 hPa 0,0 l/m 11,6 km/h (2 Bft) W 263 0 min 0,000 mm 0,7 UV-I 184 W/m 3,1 C 5,5 C 25,7 km/h (4 Bft)
14.11.2015 11:20 8,9 C 67 % 1026,5 hPa 0,0 l/m 14,9 km/h (3 Bft) W-NW 292 0 min 0,000 mm 0,7 UV-I 189 W/m 3,1 C 3,8 C 29,0 km/h (5 Bft)
14.11.2015 11:25 8,9 C 67 % 1026,5 hPa 0,0 l/m 13,6 km/h (3 Bft) W 274 5 min 0,000 mm 0,8 UV-I 204 W/m 3,1 C 4,4 C 29,0 km/h (5 Bft)
14.11.2015 11:30 9,1 C 66 % 1026,4 hPa 0,0 l/m 12,3 km/h (3 Bft) W 259 0 min 0,000 mm 0,8 UV-I 193 W/m 3,1 C 5,3 C 20,9 km/h (4 Bft)
14.11.2015 11:35 9,1 C 67 % 1026,3 hPa 0,0 l/m 7,6 km/h (2 Bft) W-NW 288 0 min 0,000 mm 0,7 UV-I 160 W/m 3,3 C 8,2 C 17,7 km/h (3 Bft)
14.11.2015 11:40 9,1 C 67 % 1026,3 hPa 0,0 l/m 11,6 km/h (2 Bft) W 276 0 min 0,000 mm 0,7 UV-I 167 W/m 3,3 C 5,7 C 27,4 km/h (4 Bft)
14.11.2015 11:45 9,1 C 67 % 1026,4 hPa 0,0 l/m 10,1 km/h (2 Bft) W-NW 290 0 min 0,000 mm 0,7 UV-I 158 W/m 3,3 C 6,5 C 19,3 km/h (3 Bft)
14.11.2015 11:50 9,1 C 67 % 1026,4 hPa 0,0 l/m 12,0 km/h (2 Bft) W 259 0 min 0,000 mm 0,7 UV-I 159 W/m 3,3 C 5,5 C 22,5 km/h (4 Bft)
14.11.2015 11:55 9,1 C 66 % 1026,3 hPa 0,0 l/m 12,0 km/h (2 Bft) W-NW 283 0 min 0,000 mm 0,7 UV-I 135 W/m 3,1 C 5,5 C 25,7 km/h (4 Bft)
14.11.2015 12:00 9,1 C 67 % 1026,3 hPa 0,0 l/m 8,5 km/h (2 Bft) W 261 0 min 0,127 mm 0,6 UV-I 123 W/m 3,3 C 7,6 C 20,9 km/h (4 Bft)
14.11.2015 12:05 9,1 C 68 % 1026,2 hPa 0,0 l/m 10,0 km/h (2 Bft) W-SW 250 0 min 0,000 mm 0,7 UV-I 132 W/m 3,5 C 6,6 C 20,9 km/h (4 Bft)
14.11.2015 12:10 9,1 C 68 % 1026,1 hPa 0,0 l/m 8,8 km/h (2 Bft) W 273 0 min 0,000 mm 0,6 UV-I 112 W/m 3,5 C 7,4 C 22,5 km/h (4 Bft)
14.11.2015 12:15 9,0 C 68 % 1026,1 hPa 0,0 l/m 11,0 km/h (2 Bft) W 263 0 min 0,000 mm 0,5 UV-I 99 W/m 3,4 C 5,9 C 24,1 km/h (4 Bft)
14.11.2015 12:20 9,0 C 69 % 1026,2 hPa 0,0 l/m 10,2 km/h (2 Bft) W-SW 248 0 min 0,000 mm 0,6 UV-I 108 W/m 3,6 C 6,4 C 22,5 km/h (4 Bft)
14.11.2015 12:25 9,1 C 68 % 1026,1 hPa 0,0 l/m 10,0 km/h (2 Bft) W 264 0 min 0,000 mm 0,6 UV-I 117 W/m 3,5 C 6,6 C 20,9 km/h (4 Bft)
14.11.2015 12:30 9,1 C 69 % 1026,0 hPa 0,0 l/m 12,8 km/h (3 Bft) SW 225 0 min 0,000 mm 0,6 UV-I 125 W/m 3,7 C 5,1 C 22,5 km/h (4 Bft)
14.11.2015 12:35 9,1 C 69 % 1026,1 hPa 0,0 l/m 10,3 km/h (2 Bft) W 265 0 min 0,000 mm 0,6 UV-I 109 W/m 3,7 C 6,4 C 19,3 km/h (3 Bft)
14.11.2015 12:40 9,1 C 69 % 1026,0 hPa 0,0 l/m 11,2 km/h (2 Bft) W 278 0 min 0,000 mm 0,6 UV-I 115 W/m 3,7 C 5,9 C 19,3 km/h (3 Bft)
14.11.2015 12:45 9,1 C 69 % 1026,0 hPa 0,0 l/m 12,1 km/h (2 Bft) W-NW 298 0 min 0,000 mm 0,5 UV-I 95 W/m 3,7 C 5,4 C 25,7 km/h (4 Bft)
14.11.2015 12:50 9,1 C 69 % 1025,8 hPa 0,0 l/m 11,5 km/h (2 Bft) W-SW 257 0 min 0,000 mm 0,5 UV-I 102 W/m 3,7 C 5,7 C 24,1 km/h (4 Bft)
14.11.2015 12:55 9,1 C 69 % 1025,7 hPa 0,0 l/m 11,8 km/h (2 Bft) W-NW 288 0 min 0,000 mm 0,6 UV-I 131 W/m 3,7 C 5,6 C 22,5 km/h (4 Bft)
14.11.2015 13:00 9,1 C 69 % 1025,7 hPa 0,0 l/m 11,5 km/h (2 Bft) W 261 0 min 0,076 mm 0,6 UV-I 122 W/m 3,7 C 5,7 C 32,2 km/h (5 Bft)
14.11.2015 13:05 9,2 C 69 % 1025,7 hPa 0,0 l/m 9,8 km/h (2 Bft) W 265 0 min 0,000 mm 0,5 UV-I 100 W/m 3,8 C 6,8 C 19,3 km/h (3 Bft)
14.11.2015 13:10 9,2 C 69 % 1025,6 hPa 0,0 l/m 9,2 km/h (2 Bft) W-NW 283 0 min 0,000 mm 0,5 UV-I 88 W/m 3,8 C 7,2 C 25,7 km/h (4 Bft)
14.11.2015 13:15 9,2 C 69 % 1025,7 hPa 0,0 l/m 9,1 km/h (2 Bft) W 265 0 min 0,000 mm 0,5 UV-I 99 W/m 3,8 C 7,3 C 25,7 km/h (4 Bft)
14.11.2015 13:20 9,2 C 69 % 1025,6 hPa 0,0 l/m 12,6 km/h (3 Bft) NW 305 0 min 0,000 mm 0,0 UV-I 74 W/m 3,8 C 5,3 C 24,1 km/h (4 Bft)
14.11.2015 13:25 9,2 C 69 % 1025,5 hPa 0,0 l/m 11,7 km/h (2 Bft) SW 218 0 min 0,000 mm 0,0 UV-I 54 W/m 3,8 C 5,8 C 22,5 km/h (4 Bft)
14.11.2015 13:30 9,2 C 70 % 1025,5 hPa 0,0 l/m 7,5 km/h (2 Bft) W 281 0 min 0,000 mm 0,0 UV-I 46 W/m 4,0 C 8,4 C 17,7 km/h (3 Bft)
14.11.2015 13:35 9,2 C 69 % 1025,5 hPa 0,0 l/m 9,9 km/h (2 Bft) W-NW 288 0 min 0,000 mm 0,0 UV-I 61 W/m 3,8 C 6,8 C 22,5 km/h (4 Bft)
14.11.2015 13:40 9,3 C 69 % 1025,5 hPa 0,0 l/m 11,9 km/h (2 Bft) W-NW 299 0 min 0,000 mm 0,0 UV-I 63 W/m 3,9 C 5,8 C 22,5 km/h (4 Bft)
14.11.2015 13:45 9,3 C 69 % 1025,3 hPa 0,0 l/m 7,4 km/h (2 Bft) W 281 0 min 0,000 mm 0,0 UV-I 70 W/m 3,9 C 8,6 C 19,3 km/h (3 Bft)
14.11.2015 13:50 9,3 C 69 % 1025,4 hPa 0,0 l/m 8,6 km/h (2 Bft) W 259 0 min 0,000 mm 0,0 UV-I 80 W/m 3,9 C 7,7 C 22,5 km/h (4 Bft)
14.11.2015 13:55 9,3 C 69 % 1025,4 hPa 0,0 l/m 9,4 km/h (2 Bft) W 269 0 min 0,000 mm 0,1 UV-I 82 W/m 3,9 C 7,2 C 22,5 km/h (4 Bft)
14.11.2015 14:00 9,4 C 69 % 1025,3 hPa 0,0 l/m 7,1 km/h (2 Bft) W-SW 252 0 min 0,077 mm 0,0 UV-I 65 W/m 4,0 C 8,9 C 19,3 km/h (3 Bft)
14.11.2015 14:05 9,3 C 69 % 1025,3 hPa 0,0 l/m 9,6 km/h (2 Bft) W-SW 248 0 min 0,000 mm 0,0 UV-I 60 W/m 3,9 C 7,1 C 24,1 km/h (4 Bft)
14.11.2015 14:10 9,3 C 71 % 1025,5 hPa 0,0 l/m 7,5 km/h (2 Bft) W-SW 257 0 min 0,000 mm 0,0 UV-I 57 W/m 4,3 C 8,5 C 17,7 km/h (3 Bft)
14.11.2015 14:15 9,2 C 73 % 1025,3 hPa 0,0 l/m 13,5 km/h (3 Bft) W 278 0 min 0,000 mm 0,0 UV-I 59 W/m 4,6 C 4,8 C 24,1 km/h (4 Bft)
14.11.2015 14:20 9,0 C 74 % 1025,3 hPa 0,0 l/m 8,2 km/h (2 Bft) W-SW 252 0 min 0,000 mm 0,0 UV-I 63 W/m 4,6 C 7,7 C 17,7 km/h (3 Bft)
14.11.2015 14:25 8,9 C 75 % 1025,3 hPa 0,0 l/m 7,6 km/h (2 Bft) W-SW 241 0 min 0,000 mm 0,0 UV-I 41 W/m 4,7 C 8,0 C 16,1 km/h (3 Bft)
14.11.2015 14:30 8,8 C 76 % 1025,3 hPa 0,0 l/m 7,6 km/h (2 Bft) W-SW 258 0 min 0,000 mm 0,0 UV-I 51 W/m 4,8 C 7,9 C 19,3 km/h (3 Bft)
14.11.2015 14:35 8,7 C 78 % 1025,3 hPa 0,0 l/m 6,9 km/h (2 Bft) W-SW 248 0 min 0,000 mm 0,0 UV-I 51 W/m 5,1 C 8,3 C 14,5 km/h (3 Bft)
14.11.2015 14:40 8,6 C 78 % 1025,3 hPa 0,0 l/m 3,8 km/h (1 Bft) W-NW 291 0 min 0,000 mm 0,0 UV-I 57 W/m 5,0 C 8,6 C 16,1 km/h (3 Bft)
14.11.2015 14:45 8,5 C 79 % 1025,2 hPa 0,0 l/m 4,3 km/h (1 Bft) W-SW 254 0 min 0,000 mm 0,0 UV-I 46 W/m 5,1 C 8,5 C 12,9 km/h (3 Bft)
14.11.2015 14:50 8,5 C 80 % 1025,1 hPa 0,0 l/m 1,2 km/h (1 Bft) W-SW 248 0 min 0,000 mm 0,0 UV-I 58 W/m 5,3 C 8,5 C 11,3 km/h (2 Bft)
14.11.2015 14:55 8,5 C 81 % 1025,1 hPa 0,0 l/m 0,0 km/h (0 Bft) SW 217 0 min 0,000 mm 0,0 UV-I 56 W/m 5,4 C 8,5 C 1,6 km/h (1 Bft)
14.11.2015 15:00 8,5 C 81 % 1025,1 hPa 0,0 l/m 0,3 km/h (0 Bft) W-SW 250 0 min 0,050 mm 0,0 UV-I 33 W/m 5,4 C 8,5 C 4,8 km/h (1 Bft)
14.11.2015 15:05 8,5 C 82 % 1025,1 hPa 0,0 l/m 1,7 km/h (1 Bft) W 272 0 min 0,000 mm 0,0 UV-I 44 W/m 5,6 C 8,5 C 9,7 km/h (2 Bft)
14.11.2015 15:10 8,4 C 82 % 1025,1 hPa 0,0 l/m 1,4 km/h (1 Bft) W-SW 243 0 min 0,000 mm 0,0 UV-I 46 W/m 5,5 C 8,4 C 8,0 km/h (2 Bft)
14.11.2015 15:15 8,4 C 83 % 1025,1 hPa 0,0 l/m 1,4 km/h (1 Bft) W-SW 257 0 min 0,000 mm 0,0 UV-I 32 W/m 5,7 C 8,4 C 8,0 km/h (2 Bft)
14.11.2015 15:20 8,3 C 84 % 1025,0 hPa 0,0 l/m 0,4 km/h (0 Bft) W-SW 248 0 min 0,000 mm 0,0 UV-I 31 W/m 5,8 C 8,3 C 6,4 km/h (2 Bft)
14.11.2015 15:25 8,3 C 84 % 1025,1 hPa 0,0 l/m 0,7 km/h (0 Bft) W-NW 288 0 min 0,000 mm 0,0 UV-I 25 W/m 5,8 C 8,3 C 4,8 km/h (1 Bft)
14.11.2015 15:30 8,2 C 85 % 1025,1 hPa 0,2 l/m 0,8 km/h (0 Bft) NW 304 0 min 0,000 mm 0,0 UV-I 18 W/m 5,8 C 8,2 C 4,8 km/h (1 Bft)
14.11.2015 15:35 8,1 C 86 % 1025,0 hPa 0,0 l/m 1,0 km/h (0 Bft) W 275 0 min 0,000 mm 0,0 UV-I 21 W/m 5,9 C 8,1 C 4,8 km/h (1 Bft)
14.11.2015 15:40 8,1 C 87 % 1025,0 hPa 0,0 l/m 0,5 km/h (0 Bft) W-SW 250 0 min 0,000 mm 0,0 UV-I 31 W/m 6,1 C 8,1 C 6,4 km/h (2 Bft)
14.11.2015 15:45 8,0 C 87 % 1024,9 hPa 0,0 l/m 0,8 km/h (0 Bft) W 266 0 min 0,000 mm 0,0 UV-I 31 W/m 6,0 C 8,0 C 6,4 km/h (2 Bft)
14.11.2015 15:50 7,9 C 87 % 1024,9 hPa 0,0 l/m 1,2 km/h (1 Bft) W-NW 284 0 min 0,000 mm 0,0 UV-I 31 W/m 5,9 C 7,9 C 8,0 km/h (2 Bft)
14.11.2015 15:55 7,9 C 87 % 1024,8 hPa 0,0 l/m 0,4 km/h (0 Bft) SW 223 0 min 0,000 mm 0,0 UV-I 25 W/m 5,9 C 7,9 C 6,4 km/h (2 Bft)
14.11.2015 16:00 7,9 C 87 % 1024,7 hPa 0,0 l/m 0,0 km/h (0 Bft) W-SW 242 0 min 0,026 mm 0,0 UV-I 23 W/m 5,9 C 7,9 C 0,0 km/h (0 Bft)
14.11.2015 16:05 7,9 C 87 % 1024,6 hPa 0,0 l/m 0,2 km/h (0 Bft) W-SW 256 0 min 0,000 mm 0,0 UV-I 19 W/m 5,9 C 7,9 C 3,2 km/h (1 Bft)
14.11.2015 16:10 7,8 C 87 % 1024,6 hPa 0,0 l/m 0,0 km/h (0 Bft) W 267 0 min 0,000 mm 0,0 UV-I 16 W/m 5,8 C 7,8 C 0,0 km/h (0 Bft)
14.11.2015 16:15 7,8 C 87 % 1024,5 hPa 0,0 l/m 0,3 km/h (0 Bft) SW 228 0 min 0,000 mm 0,0 UV-I 12 W/m 5,8 C 7,8 C 4,8 km/h (1 Bft)
14.11.2015 16:20 7,8 C 87 % 1024,4 hPa 0,0 l/m 0,0 km/h (0 Bft) SW 228 0 min 0,000 mm 0,0 UV-I 8 W/m 5,8 C 7,8 C 0,0 km/h (0 Bft)
14.11.2015 16:25 7,8 C 87 % 1024,3 hPa 0,0 l/m 0,0 km/h (0 Bft) W-NW 284 0 min 0,000 mm 0,0 UV-I 1 W/m 5,8 C 7,8 C 0,0 km/h (0 Bft)
14.11.2015 16:30 7,7 C 88 % 1024,4 hPa 0,0 l/m 0,0 km/h (0 Bft) W-NW 284 0 min 0,000 mm 0,0 UV-I 0 W/m 5,8 C 7,7 C 0,0 km/h (0 Bft)
14.11.2015 16:35 7,7 C 88 % 1024,3 hPa 0,0 l/m 0,0 km/h (0 Bft) W-NW 286 0 min 0,000 mm 0,0 UV-I 0 W/m 5,8 C 7,7 C 0,0 km/h (0 Bft)
14.11.2015 16:40 7,7 C 87 % 1024,4 hPa 0,0 l/m 0,5 km/h (0 Bft) W 273 0 min 0,000 mm 0,0 UV-I 0 W/m 5,7 C 7,7 C 6,4 km/h (2 Bft)
14.11.2015 16:45 7,7 C 88 % 1024,3 hPa 0,0 l/m 2,2 km/h (1 Bft) SW 220 0 min 0,000 mm 0,0 UV-I 0 W/m 5,8 C 7,7 C 9,7 km/h (2 Bft)
14.11.2015 16:50 7,7 C 88 % 1024,3 hPa 0,2 l/m 2,7 km/h (1 Bft) W-SW 252 0 min 0,000 mm 0,0 UV-I 0 W/m 5,8 C 7,7 C 12,9 km/h (3 Bft)
14.11.2015 16:55 7,6 C 89 % 1024,1 hPa 0,0 l/m 1,2 km/h (1 Bft) SW 218 0 min 0,000 mm 0,0 UV-I 0 W/m 5,9 C 7,6 C 6,4 km/h (2 Bft)
14.11.2015 17:00 7,5 C 90 % 1024,1 hPa 0,2 l/m 0,3 km/h (0 Bft) SW 222 0 min 0,000 mm 0,0 UV-I 0 W/m 6,0 C 7,5 C 4,8 km/h (1 Bft)
14.11.2015 17:05 7,4 C 91 % 1024,1 hPa 0,0 l/m 0,1 km/h (0 Bft) W 273 0 min 0,000 mm 0,0 UV-I 0 W/m 6,0 C 7,4 C 4,8 km/h (1 Bft)
14.11.2015 17:10 7,4 C 91 % 1024,0 hPa 0,0 l/m 0,0 km/h (0 Bft) SW 227 0 min 0,000 mm 0,0 UV-I 0 W/m 6,0 C 7,4 C 1,6 km/h (1 Bft)
14.11.2015 17:15 7,3 C 91 % 1024,0 hPa 0,0 l/m 0,2 km/h (0 Bft) W-NW 297 0 min 0,000 mm 0,0 UV-I 0 W/m 5,9 C 7,3 C 4,8 km/h (1 Bft)
14.11.2015 17:20 7,3 C 91 % 1024,0 hPa 0,0 l/m 0,2 km/h (0 Bft) SW 234 0 min 0,000 mm 0,0 UV-I 0 W/m 5,9 C 7,3 C 4,8 km/h (1 Bft)
14.11.2015 17:25 7,3 C 91 % 1024,1 hPa 0,0 l/m 0,5 km/h (0 Bft) W 268 0 min 0,000 mm 0,0 UV-I 0 W/m 5,9 C 7,3 C 8,0 km/h (2 Bft)
14.11.2015 17:30 7,3 C 92 % 1024,0 hPa 0,0 l/m 0,2 km/h (0 Bft) W 279 0 min 0,000 mm 0,0 UV-I 0 W/m 6,1 C 7,3 C 3,2 km/h (1 Bft)
14.11.2015 17:35 7,2 C 92 % 1023,9 hPa 0,2 l/m 0,0 km/h (0 Bft) W-SW 244 0 min 0,000 mm 0,0 UV-I 0 W/m 6,0 C 7,2 C 1,6 km/h (1 Bft)
14.11.2015 17:40 7,2 C 92 % 1023,9 hPa 0,0 l/m 0,0 km/h (0 Bft) NW 305 0 min 0,000 mm 0,0 UV-I 0 W/m 6,0 C 7,2 C 0,0 km/h (0 Bft)
14.11.2015 17:45 7,2 C 92 % 1023,9 hPa 0,0 l/m 0,3 km/h (0 Bft) W 280 0 min 0,000 mm 0,0 UV-I 0 W/m 6,0 C 7,2 C 4,8 km/h (1 Bft)
14.11.2015 17:50 7,2 C 92 % 1023,9 hPa 0,0 l/m 0,2 km/h (0 Bft) W-SW 248 0 min 0,000 mm 0,0 UV-I 0 W/m 6,0 C 7,2 C 4,8 km/h (1 Bft)
14.11.2015 17:55 7,2 C 92 % 1023,8 hPa 0,0 l/m 0,4 km/h (0 Bft) W-NW 283 0 min 0,000 mm 0,0 UV-I 0 W/m 6,0 C 7,2 C 4,8 km/h (1 Bft)
14.11.2015 18:00 7,2 C 92 % 1023,8 hPa 0,0 l/m 0,4 km/h (0 Bft) W 262 0 min 0,000 mm 0,0 UV-I 0 W/m 6,0 C 7,2 C 6,4 km/h (2 Bft)
14.11.2015 18:05 7,2 C 91 % 1023,8 hPa 0,0 l/m 0,2 km/h (0 Bft) W 267 0 min 0,000 mm 0,0 UV-I 0 W/m 5,8 C 7,2 C 3,2 km/h (1 Bft)
14.11.2015 18:10 7,2 C 91 % 1023,8 hPa 0,0 l/m 0,6 km/h (0 Bft) W 261 0 min 0,000 mm 0,0 UV-I 0 W/m 5,8 C 7,2 C 8,0 km/h (2 Bft)
14.11.2015 18:15 7,2 C 91 % 1023,7 hPa 0,0 l/m 0,4 km/h (0 Bft) W 271 0 min 0,000 mm 0,0 UV-I 0 W/m 5,8 C 7,2 C 4,8 km/h (1 Bft)
14.11.2015 18:20 7,2 C 91 % 1023,7 hPa 0,0 l/m 0,0 km/h (0 Bft) W 271 0 min 0,000 mm 0,0 UV-I 0 W/m 5,8 C 7,2 C 0,0 km/h (0 Bft)
14.11.2015 18:25 7,2 C 91 % 1023,6 hPa 0,0 l/m 0,0 km/h (0 Bft) W-SW 242 0 min 0,000 mm 0,0 UV-I 0 W/m 5,8 C 7,2 C 0,0 km/h (0 Bft)
14.11.2015 18:30 7,1 C 91 % 1023,6 hPa 0,2 l/m 0,0 km/h (0 Bft) W-SW 245 0 min 0,000 mm 0,0 UV-I 0 W/m 5,7 C 7,1 C 1,6 km/h (1 Bft)
14.11.2015 18:35 7,1 C 92 % 1023,5 hPa 0,0 l/m 0,3 km/h (0 Bft) W-SW 256 0 min 0,000 mm 0,0 UV-I 0 W/m 5,9 C 7,1 C 4,8 km/h (1 Bft)
14.11.2015 18:40 7,1 C 92 % 1023,5 hPa 0,0 l/m 0,3 km/h (0 Bft) W 263 0 min 0,000 mm 0,0 UV-I 0 W/m 5,9 C 7,1 C 4,8 km/h (1 Bft)
14.11.2015 18:45 7,1 C 92 % 1023,4 hPa 0,0 l/m 0,6 km/h (0 Bft) W-NW 292 0 min 0,000 mm 0,0 UV-I 0 W/m 5,9 C 7,1 C 8,0 km/h (2 Bft)
14.11.2015 18:50 7,1 C 93 % 1023,4 hPa 0,2 l/m 0,6 km/h (0 Bft) W 277 0 min 0,000 mm 0,0 UV-I 0 W/m 6,0 C 7,1 C 9,7 km/h (2 Bft)
14.11.2015 18:55 7,1 C 93 % 1023,2 hPa 0,0 l/m 0,3 km/h (0 Bft) W-SW 238 0 min 0,000 mm 0,0 UV-I 0 W/m 6,0 C 7,1 C 6,4 km/h (2 Bft)
14.11.2015 19:00 7,1 C 93 % 1023,2 hPa 0,0 l/m 0,0 km/h (0 Bft) W-SW 242 0 min 0,000 mm 0,0 UV-I 0 W/m 6,0 C 7,1 C 1,6 km/h (1 Bft)
14.11.2015 19:05 7,1 C 93 % 1023,2 hPa 0,2 l/m 0,3 km/h (0 Bft) W-NW 288 0 min 0,000 mm 0,0 UV-I 0 W/m 6,0 C 7,1 C 3,2 km/h (1 Bft)
14.11.2015 19:10 7,1 C 93 % 1023,2 hPa 0,0 l/m 1,6 km/h (1 Bft) W-NW 285 0 min 0,000 mm 0,0 UV-I 0 W/m 6,0 C 7,1 C 8,0 km/h (2 Bft)
14.11.2015 19:15 7,2 C 93 % 1023,1 hPa 0,0 l/m 0,5 km/h (0 Bft) W-NW 292 0 min 0,000 mm 0,0 UV-I 0 W/m 6,1 C 7,2 C 4,8 km/h (1 Bft)
14.11.2015 19:20 7,2 C 93 % 1023,0 hPa 0,0 l/m 1,6 km/h (1 Bft) W-SW 240 0 min 0,000 mm 0,0 UV-I 0 W/m 6,1 C 7,2 C 9,7 km/h (2 Bft)
14.11.2015 19:25 7,2 C 93 % 1023,0 hPa 0,0 l/m 1,1 km/h (1 Bft) W-SW 242 0 min 0,000 mm 0,0 UV-I 0 W/m 6,1 C 7,2 C 8,0 km/h (2 Bft)
14.11.2015 19:30 7,2 C 92 % 1022,9 hPa 0,0 l/m 1,4 km/h (1 Bft) SW 234 0 min 0,000 mm 0,0 UV-I 0 W/m 6,0 C 7,2 C 8,0 km/h (2 Bft)
14.11.2015 19:35 7,3 C 92 % 1022,8 hPa 0,0 l/m 1,6 km/h (1 Bft) W-SW 252 0 min 0,000 mm 0,0 UV-I 0 W/m 6,1 C 7,3 C 8,0 km/h (2 Bft)
14.11.2015 19:40 7,3 C 91 % 1022,7 hPa 0,0 l/m 3,7 km/h (1 Bft) W 272 0 min 0,000 mm 0,0 UV-I 0 W/m 5,9 C 7,3 C 14,5 km/h (3 Bft)
14.11.2015 19:45 7,4 C 91 % 1022,6 hPa 0,0 l/m 2,8 km/h (1 Bft) W 260 0 min 0,000 mm 0,0 UV-I 0 W/m 6,0 C 7,4 C 12,9 km/h (3 Bft)
14.11.2015 19:50 7,3 C 91 % 1022,6 hPa 0,0 l/m 2,9 km/h (1 Bft) W 265 0 min 0,000 mm 0,0 UV-I 0 W/m 5,9 C 7,3 C 14,5 km/h (3 Bft)
14.11.2015 19:55 7,4 C 91 % 1022,6 hPa 0,0 l/m 2,5 km/h (1 Bft) W-SW 237 0 min 0,000 mm 0,0 UV-I 0 W/m 6,0 C 7,4 C 14,5 km/h (3 Bft)
14.11.2015 20:00 7,4 C 91 % 1022,5 hPa 0,0 l/m 3,4 km/h (1 Bft) S-SW 204 0 min 0,000 mm 0,0 UV-I 0 W/m 6,0 C 7,4 C 12,9 km/h (3 Bft)
14.11.2015 20:05 7,4 C 91 % 1022,6 hPa 0,0 l/m 5,8 km/h (2 Bft) SW 225 0 min 0,000 mm 0,0 UV-I 0 W/m 6,0 C 7,4 C 16,1 km/h (3 Bft)
14.11.2015 20:10 7,4 C 91 % 1022,6 hPa 0,0 l/m 2,3 km/h (1 Bft) SW 235 0 min 0,000 mm 0,0 UV-I 0 W/m 6,0 C 7,4 C 11,3 km/h (2 Bft)
14.11.2015 20:15 7,4 C 91 % 1022,5 hPa 0,2 l/m 2,6 km/h (1 Bft) SW 227 0 min 0,000 mm 0,0 UV-I 0 W/m 6,0 C 7,4 C 11,3 km/h (2 Bft)
14.11.2015 20:20 7,4 C 91 % 1022,2 hPa 0,0 l/m 1,7 km/h (1 Bft) W-SW 244 0 min 0,000 mm 0,0 UV-I 0 W/m 6,0 C 7,4 C 11,3 km/h (2 Bft)
14.11.2015 20:25 7,3 C 91 % 1022,2 hPa 0,0 l/m 2,1 km/h (1 Bft) W 281 0 min 0,000 mm 0,0 UV-I 0 W/m 5,9 C 7,3 C 9,7 km/h (2 Bft)
14.11.2015 20:30 7,3 C 91 % 1022,2 hPa 0,0 l/m 1,3 km/h (1 Bft) W 279 0 min 0,000 mm 0,0 UV-I 0 W/m 5,9 C 7,3 C 9,7 km/h (2 Bft)
14.11.2015 20:35 7,3 C 92 % 1022,1 hPa 0,0 l/m 2,2 km/h (1 Bft) S-SW 208 0 min 0,000 mm 0,0 UV-I 0 W/m 6,1 C 7,3 C 12,9 km/h (3 Bft)
14.11.2015 20:40 7,3 C 92 % 1022,1 hPa 0,0 l/m 1,7 km/h (1 Bft) SW 229 0 min 0,000 mm 0,0 UV-I 0 W/m 6,1 C 7,3 C 14,5 km/h (3 Bft)
14.11.2015 20:45 7,3 C 92 % 1022,0 hPa 0,2 l/m 0,5 km/h (0 Bft) W 269 0 min 0,000 mm 0,0 UV-I 0 W/m 6,1 C 7,3 C 9,7 km/h (2 Bft)
14.11.2015 20:50 7,2 C 92 % 1021,9 hPa 0,0 l/m 0,5 km/h (0 Bft) W-SW 246 0 min 0,000 mm 0,0 UV-I 0 W/m 6,0 C 7,2 C 4,8 km/h (1 Bft)
14.11.2015 20:55 7,2 C 92 % 1021,9 hPa 0,0 l/m 1,5 km/h (1 Bft) W-SW 254 0 min 0,000 mm 0,0 UV-I 0 W/m 6,0 C 7,2 C 8,0 km/h (2 Bft)
14.11.2015 21:00 7,2 C 92 % 1021,7 hPa 0,0 l/m 0,9 km/h (0 Bft) S-SW 196 0 min 0,000 mm 0,0 UV-I 0 W/m 6,0 C 7,2 C 9,7 km/h (2 Bft)
14.11.2015 21:05 7,2 C 92 % 1021,7 hPa 0,0 l/m 1,0 km/h (0 Bft) SW 236 0 min 0,000 mm 0,0 UV-I 0 W/m 6,0 C 7,2 C 8,0 km/h (2 Bft)
14.11.2015 21:10 7,2 C 92 % 1021,7 hPa 0,2 l/m 0,8 km/h (0 Bft) W-SW 249 0 min 0,000 mm 0,0 UV-I 0 W/m 6,0 C 7,2 C 11,3 km/h (2 Bft)
14.11.2015 21:15 7,2 C 92 % 1021,5 hPa 0,0 l/m 1,2 km/h (1 Bft) S-SW 193 0 min 0,000 mm 0,0 UV-I 0 W/m 6,0 C 7,2 C 6,4 km/h (2 Bft)
14.11.2015 21:20 7,2 C 92 % 1021,4 hPa 0,0 l/m 0,4 km/h (0 Bft) W-NW 282 0 min 0,000 mm 0,0 UV-I 0 W/m 6,0 C 7,2 C 6,4 km/h (2 Bft)
14.11.2015 21:25 7,2 C 92 % 1021,2 hPa 0,0 l/m 0,6 km/h (0 Bft) SW 228 0 min 0,000 mm 0,0 UV-I 0 W/m 6,0 C 7,2 C 6,4 km/h (2 Bft)
14.11.2015 21:30 7,2 C 92 % 1021,2 hPa 0,0 l/m 1,3 km/h (1 Bft) SW 221 0 min 0,000 mm 0,0 UV-I 0 W/m 6,0 C 7,2 C 9,7 km/h (2 Bft)
14.11.2015 21:35 7,2 C 92 % 1021,2 hPa 0,0 l/m 0,8 km/h (0 Bft) W 259 0 min 0,000 mm 0,0 UV-I 0 W/m 6,0 C 7,2 C 8,0 km/h (2 Bft)
14.11.2015 21:40 7,2 C 92 % 1021,1 hPa 0,0 l/m 0,5 km/h (0 Bft) S 173 0 min 0,000 mm 0,0 UV-I 0 W/m 6,0 C 7,2 C 9,7 km/h (2 Bft)
14.11.2015 21:45 7,3 C 92 % 1021,0 hPa 0,0 l/m 0,5 km/h (0 Bft) SW 218 0 min 0,000 mm 0,0 UV-I 0 W/m 6,1 C 7,3 C 8,0 km/h (2 Bft)
14.11.2015 21:50 7,3 C 91 % 1020,9 hPa 0,0 l/m 2,1 km/h (1 Bft) S-SW 207 0 min 0,000 mm 0,0 UV-I 0 W/m 5,9 C 7,3 C 12,9 km/h (3 Bft)
14.11.2015 21:55 7,3 C 91 % 1020,8 hPa 0,0 l/m 2,2 km/h (1 Bft) SW 217 0 min 0,000 mm 0,0 UV-I 0 W/m 5,9 C 7,3 C 12,9 km/h (3 Bft)
14.11.2015 22:00 7,3 C 91 % 1020,7 hPa 0,0 l/m 2,5 km/h (1 Bft) W-SW 238 0 min 0,000 mm 0,0 UV-I 0 W/m 5,9 C 7,3 C 11,3 km/h (2 Bft)
14.11.2015 22:05 7,4 C 90 % 1020,8 hPa 0,0 l/m 1,4 km/h (1 Bft) W-SW 246 0 min 0,000 mm 0,0 UV-I 0 W/m 5,9 C 7,4 C 16,1 km/h (3 Bft)
14.11.2015 22:10 7,4 C 90 % 1020,7 hPa 0,0 l/m 1,8 km/h (1 Bft) W-NW 290 0 min 0,000 mm 0,0 UV-I 0 W/m 5,9 C 7,4 C 9,7 km/h (2 Bft)
14.11.2015 22:15 7,4 C 89 % 1020,9 hPa 0,0 l/m 3,7 km/h (1 Bft) W-SW 243 0 min 0,000 mm 0,0 UV-I 0 W/m 5,7 C 7,4 C 17,7 km/h (3 Bft)
14.11.2015 22:20 7,4 C 90 % 1020,7 hPa 0,0 l/m 2,7 km/h (1 Bft) SW 221 0 min 0,000 mm 0,0 UV-I 0 W/m 5,9 C 7,4 C 11,3 km/h (2 Bft)
14.11.2015 22:25 7,4 C 89 % 1020,5 hPa 0,0 l/m 4,9 km/h (1 Bft) W-NW 289 0 min 0,000 mm 0,0 UV-I 0 W/m 5,7 C 7,4 C 16,1 km/h (3 Bft)
14.11.2015 22:30 7,4 C 89 % 1020,3 hPa 0,0 l/m 3,9 km/h (1 Bft) SW 226 0 min 0,000 mm 0,0 UV-I 0 W/m 5,7 C 7,4 C 16,1 km/h (3 Bft)
14.11.2015 22:35 7,4 C 89 % 1020,3 hPa 0,0 l/m 2,8 km/h (1 Bft) W-SW 243 0 min 0,000 mm 0,0 UV-I 0 W/m 5,7 C 7,4 C 14,5 km/h (3 Bft)
14.11.2015 22:40 7,4 C 89 % 1020,3 hPa 0,0 l/m 4,0 km/h (1 Bft) W 263 0 min 0,000 mm 0,0 UV-I 0 W/m 5,7 C 7,4 C 12,9 km/h (3 Bft)
14.11.2015 22:45 7,3 C 89 % 1020,2 hPa 0,0 l/m 2,4 km/h (1 Bft) W-NW 289 0 min 0,000 mm 0,0 UV-I 0 W/m 5,6 C 7,3 C 14,5 km/h (3 Bft)
14.11.2015 22:50 7,3 C 89 % 1020,1 hPa 0,0 l/m 4,4 km/h (1 Bft) S 188 0 min 0,000 mm 0,0 UV-I 0 W/m 5,6 C 7,3 C 19,3 km/h (3 Bft)
14.11.2015 22:55 7,3 C 90 % 1020,0 hPa 0,0 l/m 3,0 km/h (1 Bft) W-SW 244 0 min 0,000 mm 0,0 UV-I 0 W/m 5,8 C 7,3 C 14,5 km/h (3 Bft)
14.11.2015 23:00 7,2 C 90 % 1019,9 hPa 0,0 l/m 4,4 km/h (1 Bft) W-SW 242 0 min 0,000 mm 0,0 UV-I 0 W/m 5,7 C 7,2 C 14,5 km/h (3 Bft)
14.11.2015 23:05 7,2 C 90 % 1019,7 hPa 0,0 l/m 3,4 km/h (1 Bft) S-SW 206 0 min 0,000 mm 0,0 UV-I 0 W/m 5,7 C 7,2 C 14,5 km/h (3 Bft)
14.11.2015 23:10 7,2 C 90 % 1019,6 hPa 0,0 l/m 5,5 km/h (1 Bft) W-SW 251 0 min 0,000 mm 0,0 UV-I 0 W/m 5,7 C 7,2 C 16,1 km/h (3 Bft)
14.11.2015 23:15 7,1 C 90 % 1019,7 hPa 0,0 l/m 4,0 km/h (1 Bft) S-SW 198 0 min 0,000 mm 0,0 UV-I 0 W/m 5,6 C 7,1 C 14,5 km/h (3 Bft)
14.11.2015 23:20 7,1 C 90 % 1019,6 hPa 0,0 l/m 3,6 km/h (1 Bft) SW 221 0 min 0,000 mm 0,0 UV-I 0 W/m 5,6 C 7,1 C 9,7 km/h (2 Bft)
14.11.2015 23:25 7,1 C 90 % 1019,4 hPa 0,0 l/m 4,0 km/h (1 Bft) SW 235 0 min 0,000 mm 0,0 UV-I 0 W/m 5,6 C 7,1 C 17,7 km/h (3 Bft)
14.11.2015 23:30 7,0 C 91 % 1019,3 hPa 0,0 l/m 3,6 km/h (1 Bft) SW 216 0 min 0,000 mm 0,0 UV-I 0 W/m 5,6 C 7,0 C 19,3 km/h (3 Bft)
14.11.2015 23:35 7,0 C 91 % 1019,1 hPa 0,0 l/m 4,2 km/h (1 Bft) S 177 0 min 0,000 mm 0,0 UV-I 0 W/m 5,6 C 7,0 C 19,3 km/h (3 Bft)
14.11.2015 23:40 6,9 C 91 % 1019,0 hPa 0,2 l/m 5,8 km/h (2 Bft) W 262 0 min 0,000 mm 0,0 UV-I 0 W/m 5,5 C 6,9 C 16,1 km/h (3 Bft)
14.11.2015 23:45 6,9 C 91 % 1018,9 hPa 0,0 l/m 3,8 km/h (1 Bft) S-SW 200 0 min 0,000 mm 0,0 UV-I 0 W/m 5,5 C 6,9 C 16,1 km/h (3 Bft)
14.11.2015 23:50 6,9 C 91 % 1018,8 hPa 0,0 l/m 6,2 km/h (2 Bft) W 275 0 min 0,000 mm 0,0 UV-I 0 W/m 5,5 C 6,9 C 17,7 km/h (3 Bft)
14.11.2015 23:55 6,9 C 91 % 1018,7 hPa 0,0 l/m 3,6 km/h (1 Bft) W 266 0 min 0,000 mm 0,0 UV-I 0 W/m 5,5 C 6,9 C 12,9 km/h (3 Bft)
_ Min-Zeit 05:40 11:30 23:55 - 05:25 - - - - - - 04:35 01:10 05:30
Minimum _ 4,9 C 66 % 1018,7 hPa - 0,0 km/h (0 Bft) - - - - - - 1,8 C 2,4 C 0,0 km/h (0 Bft)
_ Max-Zeit 14:00 18:50 10:25 15:30 11:20 - - 10:00 12:00 11:10 10:10 19:15 14:00 10:20
Maximum _ 9,4 C 93 % 1026,7 hPa 0,2 l/m 14,9 km/h
W-NW (3 Bft)
- - 5 min 0,127 mm 0,8 UV-I 224 W/m 6,1 C 8,9 C 37,0 km/h
W (5 Bft)
Durchschnitt _ 7,3 C 81 % 1024,7 hPa #2,2 l/m 4,9 km/h (1 Bft) W - #30 min. #0,686 mm 0,6 UV-I 84 W/m 4,2 C 6,3 C 14,0 km/h (3 Bft)